Location: Asheville, NC
(35.6000°N, 82.5500°W)
Time: 08:56:06
(UTC-04:00)

XW-2B - Pass Details

Date: 03 January 2018
Orbit: 511 x 530 km, 97.5° (Epoch: 26 April)

Event Time Altitude Azimuth Distance (km) Brightness Sun altitude
Rises 18:31:12 0° 192° (SSW) 2,648 ? -12.3°
Reaches altitude 10° 18:33:33 10° 205° (SSW) 1,766 ? -12.7°
Maximum altitude 18:36:47 26° 264° (W) 1,064 ? -13.4°
Drops below altitude 10° 18:40:03 10° 322° (NW) 1,780 ? -14.0°
Sets 18:42:25 0° 335° (NNW) 2,675 ? -14.5°
